Showing default

LKW-4, 43236

Orbit data source: Space-Track

LKW-4, 43236 is a Chinese payload satellite in SSO that was launched on Sat, 17 Mar 2018 UTC via a CHANG ZHENG 2D launch vehicle from the Jiuquan Satellite Launch Center, China (JSC). Payload-class satellites include a variety of spacecraft equipped with specific instruments for various scientific and technological missions. These include communications satellites like Starlink; space stations such as the ISS; scientific satellites like the Hubble; Earth observation satellites from companies like Planet Labs, Umbra, and HawkEye 360; GPS; miniature CubeSats for education and research; and military/defense satellites.

Loading next visibility...
Identifier
43236, 2018-025A
Orbit
SSO
Country
Flag of CNCN / PRC
Related business
Manufacturer
CAST?
Mission
Operational Defense Imaging
Bus & Motor
LKW, Unknown motor
Mass
~2,000 kg wet, ~2,000 kg dry
Launch date (UTC)
2018-03-17 (8 years ago)
Launch vehicle
CHANG ZHENG 2D
Launch site
Jiuquan Satellite Launch Center, China (JSC)
Object type
Payload
Rocket body
Debris
Shape & HBR
Hex Cyl + 3 Pan, 5.0 m
Radar Cross Section
8.135 m², Large (>1 m²)

Expand to show TLE details & history
Last TLE update: 7 hours ago

TLE from 7 hours ago
0 LKW-4
1 43236U 18025A   26106.88030657  .00026605  00000-0  36059-3 0  9991
2 43236  97.6305 273.1937 0003675 163.7237 196.4136 15.57652771450478
Epoch: 2026-04-16T21:07Z
TLE epoch observation values (Epoch: 2026-04-16T21:07:38.487Z)
Latitude
-0.00008°
Longitude
111.26184°
Altitude
399.975 km
Speed
7.669 km/s
True Right ascension
18h 12m 46s
True Declination
0° 00' 00"
Sunlit
Object was in full shadow at epoch
Visualization orbit readout
Latitude
Unknown
Longitude
Unknown
Altitude
Unknown
Speed
Unknown
Apparent Right ascension
Unknown
Apparent Declination
Unknown
Sunlit
N/A
Visualization observer readout
Local Sidereal Time
10:49:23
Azimuth
Unknown
Elevation
Unknown
Doppler factor
Unknown
Orbital elements
Apogee altitude
393.866 km
Perigee altitude
388.89 km
Semi-major axis
6,769.515 km
Eccentricity
0.00037
Inclination
97.6305°
RAAN
273.1937°
Arg. of periapsis
163.7237°
True anomaly
196.40171°
Mean anomaly
196.4136°
Eccentric anomaly
196.40765°
Mean motion
3.89679 °/min
Orbital period
92.38 mins
BSTAR
0.00036059
Loading maneuver chart data...
Computing Atmospheric mass density...
Loading historical data...
Loading historical data...
Loading historical data...
Loading historical data...
Loading historical data...
Loading historical data...
Loading historical data...

Documentation

Showing up to 5 results
|